EW8735 Weather Reports


time (UTC)temp
C
wind
direction
speed
KPH
gust
KPH
rain 1hr
cm
rain 24hr
cm
rain mn
cm
humidity
%
barometer
mb
20260831050055 15 280 0.0 0.0 0.00 0.00 0.00 45 1012.4
20260831044555 15 280 0.0 0.0 0.00 0.00 0.00 46 1012.4
20260831043054 15 280 0.0 0.0 0.00 0.00 0.00 46 1012.6
20260831041554 15 280 0.0 0.0 0.00 0.00 0.00 45 1012.6
20260831040053 15 280 0.0 0.0 0.00 0.00 0.00 44 1012.6
20260831034602 15 280 0.0 0.0 0.00 0.00 0.00 44 1012.5
20260831033059 16 281 0.0 0.0 0.00 0.00 0.00 42 1012.5
20260831031552 17 280 0.0 0.0 0.00 0.00 0.00 39 1012.3
20260831030054 18 280 0.0 0.0 0.00 0.00 0.00 37 1012.3
20260831024558 20 280 0.0 0.0 0.00 0.00 0.00 36 1012.1
20260831023051 21 280 0.0 0.0 0.00 0.00 0.00 34 1012.1
20260831021551 22 281 0.0 0.0 0.00 0.00 0.00 33 1012.0
20260831020050 23 288 0.0 0.0 0.00 0.00 0.00 31 1012.0
20260831014550 23 289 0.0 0.0 0.00 0.00 0.00 31 1012.0
20260831013049 25 289 0.0 0.0 0.00 0.00 0.00 28 1012.0
20260831011555 25 289 0.0 0.0 0.00 0.00 0.00 29 1012.0
20260831010056 25 287 0.0 0.0 0.00 0.00 0.00 28 1012.0
20260831004547 25 285 0.0 0.0 0.00 0.00 0.00 29 1012.1
20260831003049 25 278 0.0 0.0 0.00 0.00 0.00 28 1012.1
20260831001544 25 278 0.0 0.0 0.00 0.00 0.00 29 1012.1
20260831000044 25 278 0.0 0.0 0.00 0.00 0.00 30 1012.3
20260830234544 25 278 0.0 0.0 0.00 0.00 0.00 29 1012.4
20260830233041 25 277 0.0 0.0 0.00 0.00 0.00 28 1012.6
20260830231538 24 277 0.0 0.0 0.00 0.00 0.00 28 1012.6
20260830230038 24 277 0.0 0.0 0.00 0.00 0.00 29 1012.6
20260830224536 24 278 0.0 0.0 0.00 0.00 0.00 30 1012.9
20260830223035 24 277 0.0 0.0 0.00 0.00 0.00 29 1012.9
20260830221536 24 257 0.0 0.0 0.00 0.00 0.00 29 1013.1
20260830220032 24 251 0.0 0.0 0.00 0.00 0.00 31 1013.4
20260830214527 23 251 0.0 0.0 0.00 0.00 0.00 31 1013.6
20260830213025 23 251 0.0 0.0 0.00 0.00 0.00 30 1013.8
20260830211523 23 250 0.0 0.0 0.00 0.00 0.00 32 1013.9
20260830210018 22 248 0.0 0.0 0.00 0.00 0.00 33 1014.1
20260830204516 22 252 0.0 0.0 0.00 0.00 0.00 34 1014.3
20260830203014 21 252 0.0 0.0 0.00 0.00 0.00 36 1014.4
20260830201512 21 252 0.0 0.0 0.00 0.00 0.00 37 1014.6
20260830200013 21 251 0.0 0.0 0.00 0.00 0.00 35 1014.7
20260830194510 22 251 0.0 0.0 0.00 0.00 0.00 35 1014.8
20260830193007 21 266 0.0 0.0 0.00 0.00 0.00 37 1015.0
20260830191504 20 266 0.0 0.0 0.00 0.00 0.00 41 1015.1
20260830190005 20 268 0.0 0.0 0.00 0.00 0.00 39 1015.3
20260830184504 20 279 0.0 0.0 0.00 0.00 0.00 38 1015.5
20260830183002 20 279 0.0 0.0 0.00 0.00 0.00 38 1015.7
20260830181559 19 279 0.0 0.0 0.00 0.00 0.00 43 1015.7
20260830180056 18 220 0.0 0.0 0.00 0.00 0.00 42 1015.6
20260830174605 17 229 0.0 0.0 0.00 0.00 0.00 42 1016.0
20260830173053 17 229 0.0 0.0 0.00 0.00 0.00 44 1016.1
20260830171557 17 229 0.0 0.0 0.00 0.00 0.00 43 1016.1
20260830170050 17 229 0.0 0.0 0.00 0.00 0.00 44 1016.4
20260830164547 16 229 0.0 0.0 0.00 0.00 0.00 48 1016.5
20260830163050 16 229 0.0 0.0 0.00 0.00 0.00 49 1016.6
20260830161544 15 229 0.0 0.0 0.00 0.00 0.00 49 1016.6
20260830160055 15 206 0.0 0.0 0.00 0.00 0.00 50 1016.7
20260830154535 15 199 0.0 0.0 0.00 0.00 0.00 51 1016.7
20260830153032 14 214 0.0 0.0 0.00 0.00 0.00 51 1016.7
20260830151531 14 262 0.0 0.0 0.00 0.00 0.00 52 1016.7
20260830150028 13 317 0.0 0.0 0.00 0.00 0.00 58 1016.8
20260830144528 11 169 0.0 0.0 0.00 0.00 0.00 63 1016.8
20260830143027 10 168 0.0 0.0 0.00 0.00 0.00 67 1016.7
20260830141533 9 166 0.0 0.0 0.00 0.00 0.00 69 1016.7
20260830140023 8 191 0.0 0.0 0.00 0.00 0.00 71 1016.5
20260830134533 7 190 0.0 0.0 0.00 0.00 0.00 74 1016.4
20260830133023 7 192 0.0 0.0 0.00 0.00 0.00 75 1016.4
20260830131523 7 191 0.0 0.0 0.00 0.00 0.00 73 1016.3
20260830130017 7 195 0.0 0.0 0.00 0.00 0.00 74 1016.1
20260830124515 7 195 0.0 0.0 0.00 0.00 0.00 72 1016.1
20260830123011 8 195 0.0 0.0 0.00 0.00 0.00 69 1016.1
20260830121527 8 195 0.0 0.0 0.00 0.00 0.00 69 1016.0
20260830120009 9 195 0.0 0.0 0.00 0.00 0.00 69 1016.0
20260830114510 8 195 0.0 0.0 0.00 0.00 0.00 70 1016.1
20260830113005 8 195 0.0 0.0 0.00 0.00 0.00 70 1015.9
20260830111504 9 195 0.0 0.0 0.00 0.00 0.00 68 1015.6
20260830110002 9 195 0.0 0.0 0.00 0.00 0.00 70 1015.5
20260830104601 9 195 0.0 0.0 0.00 0.00 0.00 70 1015.4
20260830103058 8 195 0.0 0.0 0.00 0.00 0.00 70 1015.4
20260830101557 10 195 0.0 0.0 0.00 0.00 0.00 68 1015.4
20260830100055 9 195 0.0 0.0 0.00 0.00 0.00 70 1015.3
20260830094554 9 198 0.0 0.0 0.00 0.00 0.00 69 1015.2
20260830093053 10 200 0.0 0.0 0.00 0.00 0.00 69 1015.1
20260830091650 10 200 0.0 0.0 0.00 0.00 0.00 68 1015.1
20260830084544 11 200 0.0 0.0 0.00 0.00 0.00 64 1015.2
20260830083048 11 201 0.0 0.0 0.00 0.00 0.00 63 1015.2
20260830081543 11 201 0.0 0.0 0.00 0.00 0.00 62 1015.2
20260830080040 11 201 0.0 0.0 0.00 0.00 0.00 62 1015.3
20260830074538 11 201 0.0 0.0 0.00 0.00 0.00 61 1015.2
20260830073046 11 201 0.0 0.0 0.00 0.00 0.00 61 1015.0
20260830071532 12 204 0.0 0.0 0.00 0.00 0.00 57 1014.9
20260830070029 13 206 0.0 0.0 0.00 0.00 0.00 58 1014.8
20260830064529 13 205 0.0 0.0 0.00 0.00 0.00 56 1014.9
20260830063028 14 212 0.0 0.0 0.00 0.00 0.00 55 1014.9
20260830061546 15 219 0.0 0.0 0.00 0.00 0.00 53 1014.7
20260830060026 15 228 0.0 0.0 0.00 0.00 0.00 51 1014.6
20260830054530 16 193 0.0 0.0 0.00 0.00 0.00 50 1014.7
20260830053025 15 197 0.0 0.0 0.00 0.00 0.00 51 1014.7
20260830051528 15 200 0.0 0.0 0.00 0.00 0.00 52 1014.8